Time,TemperatureF,DewpointF,PressureIn,WindDirection,WindDirectionDegrees,WindSpeedMPH,WindSpeedGustMPH,Humidity,HourlyPrecipIn,Conditions,Clouds,dailyrainin,SolarRadiationWatts/m^2,SoftwareType,DateUTC
2013-06-29 00:14:00,65.5,59.2,30.02,WNW,292,0.0,0.0,80,0.00,,,0.00,0,Wunderground v.1.15,2013-06-29 07:14:00,
2013-06-29 00:19:00,65.5,59.2,30.02,WNW,292,0.0,0.0,80,0.00,,,0.00,0,Wunderground v.1.15,2013-06-29 07:19:00,
2013-06-29 00:29:00,65.3,59.0,30.02,WNW,292,0.0,0.0,80,0.00,,,0.00,0,Wunderground v.1.15,2013-06-29 07:29:00,
2013-06-29 00:43:00,65.0,59.0,30.03,WNW,292,0.0,0.0,81,0.00,,,0.00,0,Wunderground v.1.15,2013-06-29 07:43:00,
2013-06-29 00:48:00,64.8,58.8,30.02,WNW,292,0.0,1.0,81,0.00,,,0.00,0,Wunderground v.1.15,2013-06-29 07:48:00,
2013-06-29 01:03:00,64.5,58.9,30.02,WNW,288,0.0,0.0,82,0.00,,,0.00,0,Wunderground v.1.15,2013-06-29 08:03:00,
2013-06-29 01:13:00,64.5,59.2,30.02,WNW,287,0.0,0.0,83,0.00,,,0.00,0,Wunderground v.1.15,2013-06-29 08:13:00,
2013-06-29 01:19:00,64.3,59.0,30.03,WNW,299,0.0,0.0,83,0.00,,,0.00,0,Wunderground v.1.15,2013-06-29 08:19:00,
2013-06-29 01:28:00,64.3,59.0,30.03,WNW,299,0.0,1.0,83,0.00,,,0.00,0,Wunderground v.1.15,2013-06-29 08:28:00,
2013-06-29 01:39:00,64.2,58.9,30.03,WNW,299,0.0,0.0,83,0.00,,,0.00,0,Wunderground v.1.15,2013-06-29 08:39:00,
2013-06-29 01:49:00,64.0,59.1,30.02,WNW,299,0.0,0.0,84,0.00,,,0.00,0,Wunderground v.1.15,2013-06-29 08:49:00,
2013-06-29 01:59:00,63.9,59.0,30.02,WNW,299,0.0,0.0,84,0.00,,,0.00,0,Wunderground v.1.15,2013-06-29 08:59:00,
2013-06-29 02:09:00,64.0,59.1,30.03,WNW,299,0.0,1.0,84,0.00,,,0.00,0,Wunderground v.1.15,2013-06-29 09:09:00,
2013-06-29 02:19:00,64.0,59.1,30.03,WNW,299,0.0,0.0,84,0.00,,,0.00,0,Wunderground v.1.15,2013-06-29 09:19:00,
2013-06-29 02:29:00,64.0,59.1,30.03,WNW,299,0.0,0.0,84,0.00,,,0.00,0,Wunderground v.1.15,2013-06-29 09:29:00,
2013-06-29 02:39:00,63.9,59.0,30.03,WNW,299,0.0,0.0,84,0.00,,,0.00,0,Wunderground v.1.15,2013-06-29 09:39:00,
2013-06-29 02:48:00,63.9,59.3,30.04,WNW,299,0.0,0.0,85,0.00,,,0.00,0,Wunderground v.1.15,2013-06-29 09:48:00,
2013-06-29 03:03:00,63.9,59.0,30.03,WNW,299,0.0,0.0,84,0.00,,,0.00,0,Wunderground v.1.15,2013-06-29 10:03:00,
2013-06-29 03:08:00,63.9,59.3,30.03,WNW,299,0.0,0.0,85,0.00,,,0.00,0,Wunderground v.1.15,2013-06-29 10:08:00,
2013-06-29 03:18:00,64.0,59.4,30.04,WNW,301,0.0,0.0,85,0.00,,,0.00,0,Wunderground v.1.15,2013-06-29 10:18:00,
2013-06-29 03:29:00,64.5,59.2,30.04,WNW,299,0.0,0.0,83,0.00,,,0.00,0,Wunderground v.1.15,2013-06-29 10:29:00,
2013-06-29 03:39:00,65.0,59.4,30.03,WNW,299,0.0,0.0,82,0.00,,,0.00,0,Wunderground v.1.15,2013-06-29 10:39:00,
2013-06-29 03:49:00,65.3,59.3,30.03,WNW,299,0.0,0.0,81,0.00,,,0.00,0,Wunderground v.1.15,2013-06-29 10:49:00,
2013-06-29 03:59:00,65.5,59.5,30.03,WNW,301,0.0,0.0,81,0.00,,,0.00,0,Wunderground v.1.15,2013-06-29 10:59:00,
2013-06-29 04:09:00,65.6,59.6,30.03,WNW,299,0.0,0.0,81,0.00,,,0.00,0,Wunderground v.1.15,2013-06-29 11:09:00,
2013-06-29 04:19:00,66.0,60.3,30.03,WNW,299,0.0,0.0,82,0.00,,,0.00,0,Wunderground v.1.15,2013-06-29 11:19:00,
2013-06-29 04:29:00,66.1,60.4,30.03,WNW,301,0.0,0.0,82,0.00,,,0.00,0,Wunderground v.1.15,2013-06-29 11:29:00,
2013-06-29 04:43:00,66.1,60.4,30.03,WNW,299,0.0,1.0,82,0.00,,,0.00,0,Wunderground v.1.15,2013-06-29 11:43:00,
2013-06-29 04:48:00,65.6,60.0,30.03,WNW,299,1.0,1.0,82,0.00,,,0.00,0,Wunderground v.1.15,2013-06-29 11:48:00,
2013-06-29 04:58:00,65.2,60.2,30.03,WNW,299,0.0,0.0,84,0.00,,,0.00,0,Wunderground v.1.15,2013-06-29 11:58:00,
2013-06-29 05:08:00,65.3,60.3,30.02,WNW,299,0.0,2.0,84,0.00,,,0.00,0,Wunderground v.1.15,2013-06-29 12:08:00,
2013-06-29 05:19:00,65.3,59.7,30.02,WNW,294,1.0,1.0,82,0.00,,,0.00,5,Wunderground v.1.15,2013-06-29 12:19:00,
2013-06-29 05:29:00,64.5,59.6,30.02,WNW,294,0.0,0.0,84,0.00,,,0.00,7,Wunderground v.1.15,2013-06-29 12:29:00,
2013-06-29 05:39:00,64.2,59.6,30.03,WNW,294,0.0,0.0,85,0.00,,,0.00,26,Wunderground v.1.15,2013-06-29 12:39:00,
2013-06-29 05:49:00,64.2,59.6,30.03,WNW,294,0.0,1.0,85,0.00,,,0.00,14,Wunderground v.1.15,2013-06-29 12:49:00,
2013-06-29 05:59:00,63.7,59.1,30.03,WNW,302,3.0,4.0,85,0.00,,,0.00,18,Wunderground v.1.15,2013-06-29 12:59:00,
2013-06-29 06:09:00,63.1,58.8,30.03,NW,306,2.0,3.0,86,0.00,,,0.00,16,Wunderground v.1.15,2013-06-29 13:09:00,
2013-06-29 06:19:00,63.1,59.2,30.03,NW,305,1.0,1.0,87,0.00,,,0.00,26,Wunderground v.1.15,2013-06-29 13:19:00,
2013-06-29 06:29:00,63.2,59.6,30.03,NW,306,0.0,1.0,88,0.00,,,0.00,39,Wunderground v.1.15,2013-06-29 13:29:00,
2013-06-29 06:39:00,63.2,59.6,30.02,NW,305,0.0,0.0,88,0.00,,,0.00,25,Wunderground v.1.15,2013-06-29 13:39:00,
2013-06-29 06:48:00,63.1,60.1,30.03,NW,305,0.0,0.0,90,0.00,,,0.00,30,Wunderground v.1.15,2013-06-29 13:48:00,
2013-06-29 06:59:00,63.5,60.8,30.03,NW,306,0.0,0.0,91,0.00,,,0.00,30,Wunderground v.1.15,2013-06-29 13:59:00,
2013-06-29 07:09:00,64.0,60.7,30.02,NW,306,0.0,0.0,89,0.00,,,0.00,37,Wunderground v.1.15,2013-06-29 14:09:00,
2013-06-29 07:19:00,64.3,61.0,30.02,NW,306,0.0,0.0,89,0.00,,,0.00,42,Wunderground v.1.15,2013-06-29 14:19:00,
2013-06-29 07:33:00,64.2,60.2,30.02,WNW,299,1.0,1.0,87,0.00,,,0.00,42,Wunderground v.1.15,2013-06-29 14:33:00,
2013-06-29 07:39:00,64.0,60.1,30.02,WNW,299,0.0,0.0,87,0.00,,,0.00,91,Wunderground v.1.15,2013-06-29 14:39:00,
2013-06-29 07:49:00,64.2,59.9,30.02,WNW,298,0.0,0.0,86,0.00,,,0.00,65,Wunderground v.1.15,2013-06-29 14:49:00,
2013-06-29 07:59:00,64.3,59.7,30.02,West,263,0.0,0.0,85,0.00,,,0.00,107,Wunderground v.1.15,2013-06-29 14:59:00,
2013-06-29 08:09:00,65.5,59.9,30.02,WNW,299,0.0,0.0,82,0.00,,,0.00,387,Wunderground v.1.15,2013-06-29 15:09:00,
2013-06-29 08:24:00,67.6,60.5,30.02,WNW,301,0.0,0.0,78,0.00,,,0.00,255,Wunderground v.1.15,2013-06-29 15:24:00,
2013-06-29 08:29:00,68.3,60.1,30.02,SW,229,1.0,3.0,75,0.00,,,0.00,567,Wunderground v.1.15,2013-06-29 15:29:00,
2013-06-29 08:40:00,69.3,60.3,30.02,SW,220,1.0,1.0,73,0.00,,,0.00,252,Wunderground v.1.15,2013-06-29 15:40:00,
2013-06-29 08:48:00,69.4,60.4,30.02,SW,220,0.0,0.0,73,0.00,,,0.00,297,Wunderground v.1.15,2013-06-29 15:48:00,
2013-06-29 08:58:00,68.8,60.2,30.02,SW,220,0.0,0.0,74,0.00,,,0.00,398,Wunderground v.1.15,2013-06-29 15:58:00,
2013-06-29 09:08:00,70.1,59.9,30.02,SW,220,0.0,0.0,70,0.00,,,0.00,297,Wunderground v.1.15,2013-06-29 16:08:00,
2013-06-29 09:23:00,71.1,60.8,30.02,SW,220,0.0,0.0,70,0.00,,,0.00,535,Wunderground v.1.15,2013-06-29 16:23:00,
2013-06-29 09:29:00,71.1,60.8,30.02,SW,224,0.0,2.0,70,0.00,,,0.00,702,Wunderground v.1.15,2013-06-29 16:29:00,
2013-06-29 09:39:00,71.1,60.0,30.02,SW,224,1.0,2.0,68,0.00,,,0.00,278,Wunderground v.1.15,2013-06-29 16:39:00,
2013-06-29 09:59:00,71.1,59.6,30.02,WSW,244,1.0,1.0,67,0.00,,,0.00,656,Wunderground v.1.15,2013-06-29 16:59:00,
2013-06-29 10:09:00,72.5,59.6,30.02,WSW,243,1.0,1.0,64,0.00,,,0.00,674,Wunderground v.1.15,2013-06-29 17:09:00,
2013-06-29 10:19:00,72.7,59.8,30.02,WSW,246,2.0,2.0,64,0.00,,,0.00,730,Wunderground v.1.15,2013-06-29 17:19:00,
2013-06-29 10:29:00,73.9,58.7,30.02,SW,222,1.0,2.0,59,0.00,,,0.00,628,Wunderground v.1.15,2013-06-29 17:29:00,
2013-06-29 10:39:00,75.1,59.8,30.02,SW,233,1.0,3.0,59,0.00,,,0.00,760,Wunderground v.1.15,2013-06-29 17:39:00,
2013-06-29 10:48:00,76.7,58.3,30.02,SSW,206,1.0,1.0,53,0.00,,,0.00,792,Wunderground v.1.15,2013-06-29 17:48:00,
2013-06-29 10:58:00,75.6,58.8,30.02,SSW,193,2.0,3.0,56,0.00,,,0.00,619,Wunderground v.1.15,2013-06-29 17:58:00,
2013-06-29 11:08:00,74.7,59.4,30.02,South,182,2.0,5.0,59,0.00,,,0.00,600,Wunderground v.1.15,2013-06-29 18:08:00,
2013-06-29 11:23:00,77.2,59.3,30.02,South,182,0.0,0.0,54,0.00,,,0.00,917,Wunderground v.1.15,2013-06-29 18:23:00,
2013-06-29 11:29:00,77.6,59.1,30.02,South,182,0.0,0.0,53,0.00,,,0.00,292,Wunderground v.1.15,2013-06-29 18:29:00,
2013-06-29 11:39:00,75.4,59.1,30.03,South,184,1.0,2.0,57,0.00,,,0.00,223,Wunderground v.1.15,2013-06-29 18:39:00,
2013-06-29 11:49:00,75.8,59.5,30.03,South,184,0.0,3.0,57,0.00,,,0.00,695,Wunderground v.1.15,2013-06-29 18:49:00,
2013-06-29 11:59:00,75.4,59.6,30.03,South,179,1.0,2.0,58,0.00,,,0.00,883,Wunderground v.1.15,2013-06-29 18:59:00,
2013-06-29 12:09:00,75.8,60.0,30.03,South,188,1.0,2.0,58,0.00,,,0.00,860,Wunderground v.1.15,2013-06-29 19:09:00,
2013-06-29 12:19:00,76.8,60.4,30.02,South,186,2.0,7.0,57,0.00,,,0.00,852,Wunderground v.1.15,2013-06-29 19:19:00,
2013-06-29 12:34:00,77.2,60.8,30.02,SSW,205,1.0,3.0,57,0.00,,,0.00,859,Wunderground v.1.15,2013-06-29 19:34:00,
2013-06-29 12:39:00,77.9,61.4,30.02,SSW,205,1.0,5.0,57,0.00,,,0.00,860,Wunderground v.1.15,2013-06-29 19:39:00,
2013-06-29 12:48:00,79.6,61.0,30.02,SSW,200,1.0,1.0,53,0.00,,,0.00,866,Wunderground v.1.15,2013-06-29 19:48:00,
2013-06-29 12:58:00,80.5,61.3,30.02,SSW,193,1.0,1.0,52,0.00,,,0.00,871,Wunderground v.1.15,2013-06-29 19:58:00,
2013-06-29 13:08:00,79.4,61.3,30.02,SSW,192,1.0,1.0,54,0.00,,,0.00,869,Wunderground v.1.15,2013-06-29 20:08:00,
2013-06-29 13:18:00,80.3,61.6,30.00,SSW,192,1.0,2.0,53,0.00,,,0.00,873,Wunderground v.1.15,2013-06-29 20:18:00,
2013-06-29 13:29:00,80.3,61.6,30.00,SSW,210,1.0,1.0,53,0.00,,,0.00,864,Wunderground v.1.15,2013-06-29 20:29:00,
2013-06-29 13:39:00,81.2,62.4,30.00,SSW,208,1.0,4.0,53,0.00,,,0.00,867,Wunderground v.1.15,2013-06-29 20:39:00,
2013-06-29 13:49:00,81.8,62.5,30.00,SSW,208,1.0,1.0,52,0.00,,,0.00,860,Wunderground v.1.15,2013-06-29 20:49:00,
2013-06-29 14:03:00,81.8,61.3,29.99,WSW,253,1.0,1.0,50,0.00,,,0.00,852,Wunderground v.1.15,2013-06-29 21:03:00,
2013-06-29 14:09:00,81.8,61.3,29.99,WSW,253,1.0,1.0,50,0.00,,,0.00,853,Wunderground v.1.15,2013-06-29 21:09:00,
2013-06-29 14:19:00,83.6,61.8,29.99,WSW,246,1.0,3.0,48,0.00,,,0.00,845,Wunderground v.1.15,2013-06-29 21:19:00,
2013-06-29 14:29:00,83.2,60.9,29.99,WSW,251,1.0,1.0,47,0.00,,,0.00,841,Wunderground v.1.15,2013-06-29 21:29:00,
2013-06-29 14:40:00,83.0,60.7,29.98,WSW,253,1.0,2.0,47,0.00,,,0.00,848,Wunderground v.1.15,2013-06-29 21:40:00,
2013-06-29 14:48:00,82.8,61.1,29.98,WSW,257,1.0,2.0,48,0.00,,,0.00,822,Wunderground v.1.15,2013-06-29 21:48:00,
2013-06-29 14:58:00,82.2,61.7,29.98,West,260,2.0,3.0,50,0.00,,,0.00,829,Wunderground v.1.15,2013-06-29 21:58:00,
2013-06-29 15:09:00,82.0,61.5,29.97,West,260,2.0,2.0,50,0.00,,,0.00,772,Wunderground v.1.15,2013-06-29 22:09:00,
2013-06-29 15:19:00,82.2,61.7,29.97,WNW,282,2.0,2.0,50,0.00,,,0.00,656,Wunderground v.1.15,2013-06-29 22:19:00,
2013-06-29 15:29:00,81.4,61.5,29.97,West,278,2.0,3.0,51,0.00,,,0.00,706,Wunderground v.1.15,2013-06-29 22:29:00,
2013-06-29 15:39:00,83.2,60.3,29.97,West,267,1.0,2.0,46,0.00,,,0.00,593,Wunderground v.1.15,2013-06-29 22:39:00,
2013-06-29 15:59:00,82.8,62.3,29.96,WNW,282,1.0,1.0,50,0.00,,,0.00,591,Wunderground v.1.15,2013-06-29 22:59:00,
2013-06-29 16:14:00,82.4,61.9,29.96,West,271,1.0,1.0,50,0.00,,,0.00,552,Wunderground v.1.15,2013-06-29 23:14:00,
2013-06-29 16:19:00,81.8,61.9,29.96,West,272,2.0,3.0,51,0.00,,,0.00,667,Wunderground v.1.15,2013-06-29 23:19:00,
2013-06-29 16:29:00,82.4,61.3,29.96,West,268,2.0,6.0,49,0.00,,,0.00,639,Wunderground v.1.15,2013-06-29 23:29:00,
2013-06-29 16:39:00,82.2,61.1,29.95,West,272,2.0,2.0,49,0.00,,,0.00,630,Wunderground v.1.15,2013-06-29 23:39:00,
2013-06-29 16:53:00,83.8,61.4,29.95,West,265,1.0,1.0,47,0.00,,,0.00,589,Wunderground v.1.15,2013-06-29 23:53:00,
2013-06-29 16:58:00,84.5,61.4,29.95,WSW,256,0.0,1.0,46,0.00,,,0.00,600,Wunderground v.1.15,2013-06-29 23:58:00,
2013-06-29 17:08:00,84.9,60.6,29.95,West,275,1.0,5.0,44,0.00,,,0.00,558,Wunderground v.1.15,2013-06-30 00:08:00,
2013-06-29 17:18:00,84.9,60.6,29.94,West,272,1.0,1.0,44,0.00,,,0.00,545,Wunderground v.1.15,2013-06-30 00:18:00,
2013-06-29 17:29:00,83.2,60.9,29.94,West,264,2.0,2.0,47,0.00,,,0.00,505,Wunderground v.1.15,2013-06-30 00:29:00,
2013-06-29 17:39:00,83.0,60.7,29.94,West,268,2.0,3.0,47,0.00,,,0.00,473,Wunderground v.1.15,2013-06-30 00:39:00,
2013-06-29 17:53:00,81.8,60.8,29.94,WNW,298,3.0,4.0,49,0.00,,,0.00,422,Wunderground v.1.15,2013-06-30 00:53:00,
2013-06-29 17:59:00,82.0,60.4,29.94,WNW,291,3.0,3.0,48,0.00,,,0.00,424,Wunderground v.1.15,2013-06-30 00:59:00,
2013-06-29 18:09:00,81.6,60.6,29.93,WNW,294,3.0,3.0,49,0.00,,,0.00,396,Wunderground v.1.15,2013-06-30 01:09:00,
2013-06-29 18:19:00,81.6,60.0,29.93,NW,306,3.0,6.0,48,0.00,,,0.00,370,Wunderground v.1.15,2013-06-30 01:19:00,
2013-06-29 18:29:00,81.1,60.7,29.93,WNW,299,3.0,5.0,50,0.00,,,0.00,296,Wunderground v.1.15,2013-06-30 01:29:00,
2013-06-29 18:39:00,80.3,60.5,29.93,NW,304,4.0,6.0,51,0.00,,,0.00,292,Wunderground v.1.15,2013-06-30 01:39:00,
2013-06-29 18:49:00,79.8,60.6,29.93,NW,305,5.0,6.0,52,0.00,,,0.00,280,Wunderground v.1.15,2013-06-30 01:49:00,
2013-06-29 19:03:00,79.0,60.4,29.93,WNW,292,5.0,5.0,53,0.00,,,0.00,243,Wunderground v.1.15,2013-06-30 02:03:00,
2013-06-29 19:13:00,78.1,60.1,29.93,WNW,298,5.0,6.0,54,0.00,,,0.00,216,Wunderground v.1.15,2013-06-30 02:13:00,
2013-06-29 19:19:00,77.9,59.9,29.93,WNW,287,4.0,6.0,54,0.00,,,0.00,107,Wunderground v.1.15,2013-06-30 02:19:00,
2013-06-29 19:28:00,76.5,59.6,29.93,WNW,289,5.0,5.0,56,0.00,,,0.00,158,Wunderground v.1.15,2013-06-30 02:28:00,
2013-06-29 19:43:00,76.0,59.7,29.93,NW,313,4.0,6.0,57,0.00,,,0.00,141,Wunderground v.1.15,2013-06-30 02:43:00,
2013-06-29 19:53:00,74.9,60.1,29.93,NW,319,6.0,8.0,60,0.00,,,0.00,118,Wunderground v.1.15,2013-06-30 02:53:00,
2013-06-29 20:03:00,74.9,60.1,29.93,WNW,302,3.0,3.0,60,0.00,,,0.00,99,Wunderground v.1.15,2013-06-30 03:03:00,
2013-06-29 20:09:00,74.6,59.8,29.93,NW,304,4.0,4.0,60,0.00,,,0.00,88,Wunderground v.1.15,2013-06-30 03:09:00,
2013-06-29 20:19:00,73.5,59.2,29.93,NW,305,5.0,5.0,61,0.00,,,0.00,65,Wunderground v.1.15,2013-06-30 03:19:00,
2013-06-29 20:39:00,72.8,59.5,29.93,NW,313,3.0,3.0,63,0.00,,,0.00,35,Wunderground v.1.15,2013-06-30 03:39:00,
2013-06-29 20:50:00,72.3,59.4,29.93,NW,311,2.0,2.0,64,0.00,,,0.00,18,Wunderground v.1.15,2013-06-30 03:50:00,
2013-06-29 20:58:00,71.8,59.0,29.93,NW,311,1.0,2.0,64,0.00,,,0.00,11,Wunderground v.1.15,2013-06-30 03:58:00,
2013-06-29 21:03:00,71.5,59.1,29.94,NW,311,2.0,2.0,65,0.00,,,0.00,7,Wunderground v.1.15,2013-06-30 04:03:00,
2013-06-29 21:08:00,71.1,59.2,29.94,West,264,2.0,2.0,66,0.00,,,0.00,7,Wunderground v.1.15,2013-06-30 04:08:00,
2013-06-29 21:19:00,70.8,59.3,29.94,West,277,1.0,1.0,67,0.00,,,0.00,5,Wunderground v.1.15,2013-06-30 04:19:00,
2013-06-29 21:29:00,70.4,58.9,29.94,WNW,288,1.0,1.0,67,0.00,,,0.00,0,Wunderground v.1.15,2013-06-30 04:29:00,
2013-06-29 21:39:00,70.1,58.6,29.94,WNW,288,0.0,0.0,67,0.00,,,0.00,0,Wunderground v.1.15,2013-06-30 04:39:00,
2013-06-29 21:53:00,69.8,58.3,29.94,WNW,288,0.0,0.0,67,0.00,,,0.00,0,Wunderground v.1.15,2013-06-30 04:53:00,
2013-06-29 21:59:00,69.6,59.0,29.94,WNW,288,0.0,0.0,69,0.00,,,0.00,0,Wunderground v.1.15,2013-06-30 04:59:00,
2013-06-29 22:03:00,69.4,58.8,29.94,WNW,287,0.0,0.0,69,0.00,,,0.00,0,Wunderground v.1.15,2013-06-30 05:03:00,
2013-06-29 22:09:00,69.4,59.2,29.94,WNW,287,0.0,0.0,70,0.00,,,0.00,0,Wunderground v.1.15,2013-06-30 05:09:00,
2013-06-29 22:19:00,69.4,59.2,29.95,WNW,287,0.0,0.0,70,0.00,,,0.00,0,Wunderground v.1.15,2013-06-30 05:19:00,
2013-06-29 22:29:00,69.4,59.2,29.95,WNW,287,0.0,0.0,70,0.00,,,0.00,0,Wunderground v.1.15,2013-06-30 05:29:00,
2013-06-29 22:39:00,69.1,58.9,29.95,WNW,287,0.0,0.0,70,0.00,,,0.00,0,Wunderground v.1.15,2013-06-30 05:39:00,
2013-06-29 22:50:00,68.4,58.6,29.95,WNW,285,0.0,0.0,71,0.00,,,0.00,0,Wunderground v.1.15,2013-06-30 05:50:00,
2013-06-29 22:58:00,67.8,58.4,29.95,WNW,284,0.0,0.0,72,0.00,,,0.00,0,Wunderground v.1.15,2013-06-30 05:58:00,
2013-06-29 23:08:00,66.8,58.2,29.95,West,280,0.0,0.0,74,0.00,,,0.00,0,Wunderground v.1.15,2013-06-30 06:08:00,
2013-06-29 23:18:00,66.1,57.9,29.95,NW,309,0.0,0.0,75,0.00,,,0.00,0,Wunderground v.1.15,2013-06-30 06:18:00,
2013-06-29 23:29:00,65.6,57.5,29.95,NW,308,0.0,0.0,75,0.00,,,0.00,0,Wunderground v.1.15,2013-06-30 06:29:00,
2013-06-29 23:39:00,65.5,57.7,29.95,NW,308,0.0,0.0,76,0.00,,,0.00,0,Wunderground v.1.15,2013-06-30 06:39:00,
2013-06-29 23:53:00,65.2,57.8,29.95,NW,308,0.0,0.0,77,0.00,,,0.00,0,Wunderground v.1.15,2013-06-30 06:53:00,
2013-06-29 23:59:00,65.0,57.6,29.95,NW,308,0.0,0.0,77,0.00,,,0.00,0,Wunderground v.1.15,2013-06-30 06:59:00,